Waarnemingen

Advertentie
Mijn weer
Boulogne, Frankrijk (7002): temperatuur & dauwpunt: 14.05.2019 04:00:00 - 20.05.2019 04:00:00 (CEST)Boulogne, Frankrijk (7002): windsnelheid & windstoten: 14.05.2019 04:00:00 - 20.05.2019 04:00:00 (CEST)Boulogne, Frankrijk (7002): windrichting: 14.05.2019 04:00:00 - 20.05.2019 04:00:00 (CEST)Boulogne, Frankrijk (7002): luchtdruk: 14.05.2019 04:00:00 - 20.05.2019 04:00:00 (CEST)Boulogne, Frankrijk (7002): zicht: 14.05.2019 04:00:00 - 20.05.2019 04:00:00 (CEST)Boulogne, Frankrijk (7002): neerslag: 14.05.2019 04:00:00 - 20.05.2019 04:00:00 (CEST)
Datum & Tijd tt [°C] td [°C] ff [km/u] ff [kn] fx [km/u] fx [kn] dd ppp [hPa] vv [km] rr [mm]
20.05.2019 04:00:00 10,9 10,3 9 5 16 8 N 1010,3 - 0,0
20.05.2019 03:00:00 11,0 10,2 10 5 17 9 NNO 1010,5 - 0,0
20.05.2019 02:00:00 11,0 10,2 9 5 21 12 N 1010,7 - 0,0
20.05.2019 01:00:00 10,9 10,1 12 6 19 11 N 1010,8 - 0,0
20.05.2019 00:00:00 10,9 10,0 8 5 16 9 N 1010,8 - 0,0
19.05.2019 23:00:00 10,7 9,8 8 4 18 10 N 1010,7 12 0,0
19.05.2019 22:00:00 10,7 9,6 9 5 16 9 N 1010,5 - 0,4
19.05.2019 21:00:00 11,0 9,4 9 5 18 10 N 1010,1 - 0,4
19.05.2019 20:00:00 12,3 8,9 11 6 27 14 NNO 1009,5 - 0,0
19.05.2019 19:00:00 12,7 8,8 18 10 29 15 NNO 1009,3 - 0,0
19.05.2019 18:00:00 13,3 9,0 14 8 31 17 NNO 1009,4 - 0,0
19.05.2019 17:00:00 12,9 8,8 18 10 31 17 NNO 1009,4 - 0,0
19.05.2019 16:00:00 13,0 9,4 18 10 29 16 NNO 1009,4 - 0,2
19.05.2019 15:00:00 12,8 10,3 10 6 26 14 NO 1009,4 - 0,0
19.05.2019 14:00:00 12,8 10,0 15 8 31 17 ONO 1009,4 6 0,2
19.05.2019 13:00:00 14,2 9,8 11 6 29 16 NO 1009,1 - 0,0
19.05.2019 12:00:00 14,2 8,6 13 7 32 17 NO 1008,9 - 0,0
19.05.2019 11:00:00 14,1 8,9 15 8 39 21 NO 1008,5 - 0,0
19.05.2019 10:00:00 13,7 9,7 10 6 32 17 NO 1008,2 - 0,0
19.05.2019 09:00:00 12,4 9,9 12 6 23 13 NNO 1008,0 - 0,0
19.05.2019 08:00:00 11,5 10,1 9 5 21 12 NO 1007,9 1,5 0,0
19.05.2019 07:00:00 11,0 10,2 8 4 18 10 NO 1007,7 - 0,0
19.05.2019 06:00:00 11,0 10,1 10 5 20 11 NNO 1007,6 - 0,0
19.05.2019 05:00:00 11,3 10,4 10 5 25 14 ONO 1007,5 - 0,0
19.05.2019 04:00:00 11,4 10,3 13 7 22 12 NO 1007,6 - 0,0
19.05.2019 03:00:00 11,5 9,7 8 5 14 8 NNO 1007,8 - 0,0
19.05.2019 02:00:00 11,9 9,3 8 4 11 6 NNO 1008,0 - 0,2
19.05.2019 01:00:00 12,2 9,6 6 4 23 12 ZZO 1008,2 - 0,0
19.05.2019 00:00:00 12,7 8,4 14 8 24 13 ONO 1007,8 - 0,0
18.05.2019 23:00:00 12,2 9,2 8 4 17 9 NO 1008,1 3,0 3,3
18.05.2019 22:00:00 12,3 10,0 10 6 17 9 O 1008,1 - 3,6
18.05.2019 21:00:00 13,4 9,3 7 4 24 13 NO 1007,4 - 0,2
18.05.2019 20:00:00 14,6 9,2 11 6 24 13 ONO 1006,8 - 0,0
18.05.2019 19:00:00 14,8 9,8 11 6 25 13 NO 1006,4 - 0,0
18.05.2019 18:00:00 15,3 10,3 13 7 27 15 NNO 1006,2 - 0,0
18.05.2019 17:00:00 15,6 10,4 15 8 29 16 NNO 1006,3 - 0,0
18.05.2019 16:00:00 14,1 11,4 10 5 27 15 N 1006,4 - 0,2
18.05.2019 15:00:00 15,2 10,6 12 7 36 19 N 1006,1 - 0,0
18.05.2019 14:00:00 15,4 11,4 17 9 30 16 NNW 1006,0 3,0 0,0
18.05.2019 13:00:00 14,6 11,4 18 10 27 14 NNW 1006,1 - 0,0
18.05.2019 12:00:00 14,4 11,2 14 7 24 13 NNW 1006,1 - 0,0
18.05.2019 11:00:00 15,2 9,8 6 3 16 9 N 1005,9 7 0,0
18.05.2019 10:00:00 14,1 9,3 8 5 16 8 O 1005,9 - 0,0
18.05.2019 09:00:00 13,3 9,0 8 4 16 8 O 1005,8 - 0,0
18.05.2019 08:00:00 11,9 9,1 9 5 14 8 O 1005,6 3,0 0,0
18.05.2019 07:00:00 10,4 8,5 4 2 14 8 O 1005,5 - 0,0
18.05.2019 06:00:00 10,9 8,8 8 5 16 9 ONO 1005,2 - 0,0
18.05.2019 05:00:00 10,9 9,0 12 6 16 9 ONO 1005,5 6 0,0
18.05.2019 04:00:00 10,9 9,0 8 4 16 9 NO 1005,6 - 0,0
18.05.2019 03:00:00 10,9 9,0 13 7 18 10 ONO 1005,8 - 0,0
18.05.2019 02:00:00 10,9 9,0 11 6 16 9 ONO 1006,0 - 0,0
18.05.2019 01:00:00 10,9 9,2 11 6 22 12 ONO 1006,1 - 0,0
18.05.2019 00:00:00 10,9 9,3 14 8 21 12 ONO 1006,1 - 0,0
17.05.2019 23:00:00 11,1 9,2 14 8 22 12 ONO 1006,2 7 0,0
17.05.2019 22:00:00 11,3 9,0 14 8 25 13 ONO 1006,3 - 0,0
17.05.2019 21:00:00 11,7 8,9 17 9 24 13 ONO 1006,1 - 0,0
17.05.2019 20:00:00 12,1 8,9 14 8 26 14 ONO 1006,0 6 0,0
17.05.2019 19:00:00 12,5 8,6 16 9 29 16 ONO 1006,1 - 0,0
17.05.2019 18:00:00 12,9 8,8 13 7 29 16 ONO 1006,4 - 0,0
17.05.2019 17:00:00 13,1 8,6 13 7 29 15 NO 1006,7 6 0,0
17.05.2019 16:00:00 12,9 8,6 16 8 29 16 NO 1006,8 - 0,0
17.05.2019 15:00:00 13,1 8,6 11 6 29 16 NO 1007,0 - 0,0
17.05.2019 14:00:00 12,9 8,6 12 6 24 13 ONO 1007,0 9 0,0
17.05.2019 13:00:00 12,8 8,5 12 6 23 12 ONO 1007,0 - 0,0
17.05.2019 12:00:00 11,9 8,7 10 5 23 13 NO 1007,1 - 0,0
17.05.2019 11:00:00 11,3 8,5 12 7 25 13 ONO 1007,2 8 0,0
17.05.2019 10:00:00 10,7 8,6 15 8 27 14 ONO 1007,7 - 0,0
17.05.2019 09:00:00 10,5 8,8 10 5 25 13 NO 1007,9 - 0,0
17.05.2019 08:00:00 10,8 8,9 9 5 25 13 NO 1008,2 15 0,0
17.05.2019 07:00:00 10,6 8,9 11 6 25 13 NO 1008,4 - 0,0
17.05.2019 06:00:00 10,5 8,8 12 7 26 14 NO 1008,6 - 0,0
17.05.2019 05:00:00 10,4 9,2 10 5 23 12 NO 1009,0 - 0,0
17.05.2019 04:00:00 10,4 9,0 9 5 21 12 NO 1009,4 - 0,0
17.05.2019 03:00:00 10,4 9,0 9 5 21 11 NO 1010,2 - 0,0
17.05.2019 02:00:00 10,3 8,7 11 6 24 13 NO 1011,2 15 0,0
17.05.2019 01:00:00 10,1 8,7 13 7 29 16 NO 1012,1 - 0,0
17.05.2019 00:00:00 10,3 8,4 12 7 29 16 NO 1012,7 - 0,0
16.05.2019 23:00:00 10,6 8,0 15 8 32 18 NO 1013,6 15 0,0
16.05.2019 22:00:00 11,0 7,5 13 7 31 17 NO 1013,8 - 0,0
16.05.2019 21:00:00 12,1 6,6 14 8 37 20 NO 1014,0 - 0,0
16.05.2019 20:00:00 13,3 4,4 15 8 37 20 NO 1014,2 18 0,0
16.05.2019 19:00:00 14,2 4,2 18 10 40 21 NO 1014,4 - 0,0
16.05.2019 18:00:00 14,1 3,5 20 11 42 23 NO 1015,0 - 0,0
16.05.2019 17:00:00 14,6 2,8 19 10 39 21 NO 1015,7 25 0,0
16.05.2019 16:00:00 14,5 3,0 21 11 42 23 NNO 1016,5 - 0,0
16.05.2019 15:00:00 15,2 3,3 23 12 43 23 NNO 1017,2 - 0,0
16.05.2019 14:00:00 15,8 1,9 18 10 41 22 NO 1018,0 25 0,0
16.05.2019 13:00:00 15,4 1,5 17 9 41 22 NO 1018,4 - 0,0
16.05.2019 12:00:00 16,2 1,1 20 11 43 23 ONO 1018,9 - 0,0
16.05.2019 11:00:00 15,5 1,6 18 10 37 20 O 1019,2 25 0,0
16.05.2019 10:00:00 14,5 2,4 15 8 29 16 O 1019,8 - 0,0
16.05.2019 09:00:00 12,8 3,2 13 7 26 14 O 1020,1 - 0,0
16.05.2019 08:00:00 10,7 2,5 17 9 27 15 O 1020,3 - 0,0
16.05.2019 07:00:00 9,4 2,3 19 10 28 15 O 1020,4 - 0,0
16.05.2019 06:00:00 8,9 2,7 17 9 27 14 O 1020,4 - 0,0
16.05.2019 05:00:00 8,7 3,7 17 9 29 15 O 1020,5 12 0,0
16.05.2019 04:00:00 9,3 4,7 21 11 28 15 O 1020,9 - 0,0
16.05.2019 03:00:00 9,6 5,8 19 11 32 17 O 1021,3 - 0,0
16.05.2019 02:00:00 9,8 6,7 21 12 31 17 ONO 1021,9 12 0,0
16.05.2019 01:00:00 10,0 6,2 20 11 34 18 ONO 1022,4 - 0,0
16.05.2019 00:00:00 10,4 6,0 19 11 32 17 ONO 1022,7 - 0,0
15.05.2019 23:00:00 10,8 5,1 19 10 33 18 ONO 1023,2 12 0,0
15.05.2019 22:00:00 11,3 4,5 16 9 33 18 NO 1023,5 - 0,0
15.05.2019 21:00:00 12,6 4,0 17 9 35 19 NO 1023,3 - 0,0
15.05.2019 20:00:00 13,9 2,5 13 7 35 19 NO 1023,5 12 0,0
15.05.2019 19:00:00 14,8 2,0 17 9 41 22 NO 1023,8 - 0,0
15.05.2019 18:00:00 15,4 2,9 19 10 41 22 NO 1024,0 - 0,0
15.05.2019 17:00:00 15,9 3,3 19 10 42 23 NO 1024,6 10 0,0
15.05.2019 16:00:00 16,0 3,4 26 14 51 27 NNO 1024,9 - 0,0
15.05.2019 15:00:00 16,7 3,7 23 13 42 23 NNO 1025,0 - 0,0
15.05.2019 14:00:00 17,3 1,7 12 7 32 18 NO 1025,3 - 0,0
15.05.2019 13:00:00 16,7 1,9 13 7 34 18 O 1026,2 - 0,0
15.05.2019 12:00:00 16,5 2,1 11 6 31 17 OZO 1026,7 - 0,0
15.05.2019 11:00:00 15,2 1,3 14 8 28 15 O 1027,1 - 0,0
15.05.2019 10:00:00 14,2 2,1 15 8 29 16 O 1027,4 - 0,0
15.05.2019 09:00:00 12,6 3,3 16 9 31 17 O 1027,5 - 0,0
15.05.2019 08:00:00 10,8 4,7 15 8 27 15 O 1027,5 9 0,0
15.05.2019 07:00:00 8,8 5,2 18 10 27 15 O 1027,4 - 0,0
15.05.2019 06:00:00 8,2 5,8 20 11 27 15 ONO 1027,5 - 0,0
15.05.2019 05:00:00 8,6 6,4 20 11 28 15 ONO 1027,8 10 0,0
15.05.2019 04:00:00 8,9 7,0 20 11 26 14 ONO 1027,9 - 0,0
15.05.2019 03:00:00 9,1 7,4 16 9 26 14 ONO 1028,1 - 0,0
15.05.2019 02:00:00 9,0 7,3 18 10 24 13 ONO 1028,4 - 0,0
15.05.2019 01:00:00 9,2 7,3 13 7 26 14 ONO 1029,1 - 0,0
15.05.2019 00:00:00 9,3 7,2 14 8 34 18 ONO 1029,4 - 0,0
14.05.2019 23:00:00 9,6 7,2 17 9 34 18 ONO 1029,5 15 0,0
14.05.2019 22:00:00 9,9 6,8 17 9 34 18 NO 1029,6 - 0,0
14.05.2019 21:00:00 10,9 6,6 17 9 35 19 ONO 1029,7 - 0,0
14.05.2019 20:00:00 11,9 6,4 18 10 39 21 NO 1029,9 15 0,0
14.05.2019 19:00:00 12,8 6,2 21 11 46 25 NO 1030,2 - 0,0
14.05.2019 18:00:00 13,6 6,0 18 10 39 21 NO 1030,6 - 0,0
14.05.2019 17:00:00 13,7 5,6 18 10 45 24 NO 1031,2 - 0,0
14.05.2019 16:00:00 13,6 5,5 18 10 40 22 NO 1032,0 - 0,0
14.05.2019 15:00:00 13,6 5,0 19 10 41 22 NO 1032,6 - 0,0
14.05.2019 14:00:00 14,0 4,8 19 10 40 22 NO 1033,0 - 0,0
14.05.2019 13:00:00 14,7 -0,2 20 11 39 21 ONO 1033,4 - 0,0
14.05.2019 12:00:00 13,8 0,8 21 11 37 20 ONO 1033,9 - 0,0
14.05.2019 11:00:00 12,5 1,5 18 10 35 19 ONO 1034,4 20 0,0
14.05.2019 10:00:00 11,4 1,9 17 9 31 17 ONO 1035,0 - 0,0
14.05.2019 09:00:00 10,0 2,3 16 9 39 21 O 1035,0 - 0,0
14.05.2019 08:00:00 8,4 3,2 20 11 38 21 O 1035,2 16 0,0
14.05.2019 07:00:00 7,6 3,4 24 13 37 20 ONO 1035,2 - 0,0
14.05.2019 06:00:00 7,5 3,7 24 13 40 22 ONO 1035,5 - 0,0
14.05.2019 05:00:00 8,1 4,3 25 14 37 20 ONO 1035,6 - 0,0
14.05.2019 04:00:00 8,5 4,7 22 12 35 19 ONO 1035,9 - 0,0

tt = temperatuur
td = dauwpunt
ff = windsnelheid
fx = windstoten
dd = windrichting
ppp = luchtdruk
vv = zicht
rr = neerslag

Weerstations in de omgeving